User: anonymous   Login
Location: Unspecified
(0.0000°N, 0.0000°E)
Time: 12:19:26
(UTC+02:00)
Language:

Orbus 21S - Orbit

View from above orbital plane
View from above orbital plane
View from above satellite
View from above satellite

Ground track
Ground track

The orbit data is extracted from the following two-line orbital elements,

1 20669U 90056C   16146.50173034  .00000275  00000-0  20653-3 0  9997
2 20669  24.0637 249.6150 7105946 103.4436 338.3831  2.47454226217800
Epoch (UTC): 25 May 2016 12:02:29
Eccentricity: 0.7105946
inclination: 24.0637°
perigee height: 304 km
apogee height: 33117 km
right ascension of ascending node: 249.6150°
argument of perigee: 103.4436°
revolutions per day: 2.47454226
mean anomaly at epoch: 338.3831°
orbit number at epoch: 21780

The dashed part of the orbit path shows where the satellite is in the earth's shadow,  

DLR